Location: Unspecified
(49.2170°N, 0.0000°E)
Time: 03:00:07
(UTC+00:00)

Vanguard 2 Rocket - All Passes

Search period start: 18 June 2019 00:00
Search period end: 28 June 2019 00:00
Orbit: 554 x 3326 km, 32.9° (Epoch: 17 June)

Date Brightness Start Highest point End Pass type
(mag) Time Alt. Az. Time Alt. Az. Time Alt. Az.
18 Jun - 01:26:09 10° WSW 01:39:39 44° S 01:57:44 10° ESE visible
18 Jun - 03:40:38 10° W 03:55:21 34° SSW 04:11:52 10° SSE daylight
18 Jun - 06:00:17 10° WSW 06:09:51 16° SW 06:19:21 10° SSW daylight
18 Jun - 22:15:45 10° SSW 22:24:39 30° SSE 22:37:53 10° E visible
19 Jun - 00:26:42 10° WSW 00:38:42 43° S 00:56:02 10° ESE visible
19 Jun - 02:40:06 10° WSW 02:54:13 38° SSW 03:11:36 10° SE visible
19 Jun - 04:56:57 10° W 05:09:18 22° SW 05:22:15 10° S daylight
19 Jun - 21:18:00 10° S 21:25:03 22° SE 21:35:01 10° E visible
19 Jun - 23:27:40 10° SW 23:38:07 39° SSE 23:53:58 10° ESE visible
20 Jun - 01:40:07 10° WSW 01:53:08 41° S 02:10:40 10° SE visible
20 Jun - 03:55:14 10° W 04:08:30 27° SSW 04:23:31 10° SSE daylight
20 Jun - 20:21:26 10° SSE 20:25:52 14° SE 20:31:23 10° ESE daylight
20 Jun - 22:29:04 10° SW 22:37:57 34° SSE 22:51:39 10° ESE visible
21 Jun - 00:40:35 10° WSW 00:52:14 41° S 01:09:11 10° ESE visible
21 Jun - 02:54:27 10° WSW 03:07:34 32° SSW 03:23:44 10° SSE visible
21 Jun - 05:13:36 10° WSW 05:22:13 15° SW 05:31:17 10° SSW daylight
21 Jun - 21:30:56 10° SSW 21:38:14 27° SSE 21:49:10 10° ESE visible
21 Jun - 23:41:27 10° WSW 23:51:39 40° S 00:07:18 10° ESE visible
22 Jun - 01:54:18 10° WSW 02:06:37 36° SSW 02:23:11 10° SE visible
22 Jun - 04:10:36 10° WSW 04:21:38 20° SW 04:34:03 10° S daylight
22 Jun - 20:33:29 10° S 20:38:56 19° SE 20:46:24 10° ESE visible
22 Jun - 22:42:41 10° SW 22:51:26 36° SSE 23:05:11 10° ESE visible
23 Jun - 00:54:40 10° WSW 01:05:50 37° S 01:22:00 10° SE visible
23 Jun - 03:09:13 10° WSW 03:20:54 25° SSW 03:35:06 10° SSE visible
23 Jun - 19:37:59 10° SSE 19:39:58 11° SE 19:42:10 10° ESE daylight
23 Jun - 21:44:18 10° SW 21:51:38 30° SSE 22:02:58 10° ESE visible
23 Jun - 23:55:25 10° WSW 00:05:16 38° S 00:20:23 10° ESE visible
24 Jun - 02:08:46 10° WSW 02:20:07 29° SSW 02:35:06 10° SSE visible
24 Jun - 04:27:52 10° WSW 04:34:47 13° SW 04:42:15 10° SSW daylight
24 Jun - 20:46:23 10° SSW 20:52:13 23° SSE 21:00:40 10° ESE visible
24 Jun - 22:56:32 10° SW 23:05:03 36° S 23:18:30 10° ESE visible
25 Jun - 01:08:57 10° WSW 01:19:26 32° SSW 01:34:23 10° SE visible
25 Jun - 03:24:54 10° WSW 03:34:13 18° SW 03:45:10 10° S daylight
25 Jun - 19:49:18 10° S 19:53:09 15° SE 19:58:03 10° ESE daylight
25 Jun - 21:57:59 10° SW 22:05:11 31° SSE 22:16:32 10° ESE visible
26 Jun - 00:09:35 10° WSW 00:18:57 34° S 00:33:08 10° SE visible
26 Jun - 02:23:47 10° WSW 02:33:37 22° SSW 02:46:10 10° SSE visible
26 Jun - 20:59:47 10° SSW 21:05:41 26° SSE 21:14:33 10° ESE visible
26 Jun - 23:10:35 10° WSW 23:18:45 33° S 23:31:34 10° SE visible
27 Jun - 01:23:36 10° WSW 01:33:04 26° SSW 01:46:06 10° SSE visible
27 Jun - 03:43:42 10° SW 03:47:34 11° SW 03:51:41 10° SSW daylight
27 Jun - 20:02:06 10° SSW 20:06:31 18° SSE 20:12:33 10° ESE daylight
27 Jun - 22:11:54 10° SW 22:18:53 31° S 22:29:52 10° ESE visible
